TIME,DELAY(SENSOR),PRES,OXYGEN,RAWTEMP,T(OPTODE),TCPHASE,FLUOR,BETA(BETA700),BETA(BETA412),BETA(BETA440),CDOM,C(CSC),ED(ED412.40),ED(ED444.00),ED(ED489.70),ED(ED554.30),LU(LU411.80),LU(LU443.40),LU(LU489.60),LU(LU554.10),COMP,TILTX,TILTY,CHECK
1342237128,5809,871.9299926757812000,42.8245887756347660,661.2901000976562000,4.5854911804199220,54.5922088623046900,52,100,85,78,82,15375,2147757403,2147418834,2148006701,2147874825,2147643986,2147062966,2148254162,2147201947,1975,5,13,9373
1342240724,5808,958.3200073242188000,46.5277786254882800,669.6718750000000000,4.3090357780456540,54.1510887145996100,53,101,89,80,80,15375,2147758866,2147422180,2148007780,2147873837,2147642176,2147060891,2148254966,2147201910,2990,5,13,1288
1342244324,5810,976.0399780273438000,46.9462699890136700,671.2321166992188000,4.2574901580810550,54.1162910461425800,53,98,86,78,82,15375,2147761810,2147422125,2148004461,2147872329,2147646107,2147062683,2148255076,2147197787,3471,5,13,47286
1342247924,5808,980.2100219726562000,46.7461509704589840,671.3107299804688000,4.2548899650573730,54.1391601562500000,53,102,87,78,82,15372,2147762304,2147421613,2148007204,2147876306,2147646884,2147065216,2148259721,2147203510,3090,4,13,52200
1342251524,5811,984.4899902343750000,46.9526481628418000,671.5554199218750000,4.2468028068542480,54.1178817749023440,52,99,88,79,81,15376,2147760576,2147419593,2148006912,2147877458,2147645613,2147059620,2148259291,2147201508,3582,4,13,28259
1342255124,5807,990.4899902343750000,46.2592315673828100,670.9705810546875000,4.2661290168762210,54.2075004577636700,53,100,88,79,81,15371,2147758811,2147423716,2148004964,2147877485,2147643565,2147064466,2148260653,2147198902,144,5,13,59977
1342258724,5808,994.2899780273438000,46.3031806945800800,671.3112182617188000,4.2548727989196780,54.2079505920410160,53,98,89,79,82,15374,2147759424,2147423268,2148006784,2147878180,2147646162,2147059794,2148260461,2147199341,3574,5,13,19059
1342262324,5808,990.4299926757812000,46.3765602111816400,672.1099243164062000,4.2284760475158690,54.2081108093261700,53,100,89,79,82,15371,2147761188,2147427364,2148006345,2147874267,2147643309,2147061046,2148257664,2147200905,408,5,13,12293
1342265924,5807,982.4299926757812000,46.7163505554199200,673.0338745117188000,4.1979241371154785,54.1665992736816400,52,98,88,79,81,15373,2147761398,2147423213,2148007963,2147877750,2147644690,2147061440,2148259620,2147199414,154,5,13,2064
1342269524,5811,991.8900146484375000,47.2829818725585940,673.0328979492188000,4.1979579925537110,54.0887107849121100,52,97,91,78,82,15370,2147760557,2147420498,2148004626,2147874678,2147644708,2147064530,2148258806,2147197302,3216,4,13,27508
1342273124,5809,982.2299804687500000,47.2070198059082000,673.3958740234375000,4.1859531402587890,54.1028404235839840,52,99,88,80,82,15370,2147760301,2147421796,2148007488,2147873188,2147647030,2147060178,2148258514,2147198345,2969,5,13,32222
1342276724,5810,984.9699707031250000,47.6447296142578100,674.7442016601562000,4.1413521766662600,54.0564994812011700,53,98,84,80,81,15368,2147760009,2147420772,2148009865,2147875776,2147647817,2147064896,2148262336,2147200585,2592,4,13,27455
1342280324,5812,992.9600219726562000,47.3941001892089840,673.9940185546875000,4.1661720275878910,54.0855789184570300,52,99,89,79,84,15369,2147757220,2147420754,2148004937,2147874166,2147647030,2147063698,2148260635,2147200914,18,5,13,52530
1342283924,5808,992.9299926757812000,47.1849098205566400,673.4749755859375000,4.1833357810974120,54.1093215942382800,53,98,87,78,82,15346,2147757522,2147421165,2148010340,2147875273,2147646509,2147063844,2148258139,2147198272,250,4,13,20523
1342287524,5808,992.8800048828125000,46.9495391845703100,673.5545043945312000,4.1807060241699220,54.1409797668457000,52,98,90,78,82,15345,2147759926,2147424612,2148008173,2147874797,2147645705,2147062628,2148263030,2147200301,88,5,13,45548
1342291124,5807,998.4500122070312000,47.0695190429687500,673.0731811523438000,4.1966252326965330,54.1176490783691400,53,103,86,79,81,15346,2147759817,2147421540,2148008201,2147878985,2147645394,2147061933,2148261110,2147200073,144,5,13,25551
1342294724,5809,992.6300048828125000,46.8109397888183600,673.7521972656250000,4.1741700172424320,54.1658592224121100,52,100,90,80,82,15342,2147761307,2147421723,2148005357,2147873426,2147645248,2147056466,2148258934,2147201746,3135,4,13,12956
1342298324,5808,1003.6199951171875000,47.3062210083007800,673.2534179687500000,4.1906661987304690,54.0865211486816400,53,98,86,78,82,15338,2147760694,2147421129,2148005677,2147875721,2147642450,2147062308,2148262436,2147201782,643,4,13,24001
1342301924,5807,1004.9500122070312000,46.2839393615722660,671.7780761718750000,4.2394428253173830,54.2121810913085940,53,99,88,79,82,15337,2147759168,2147421229,2148010249,2147877458,2147644397,2147062482,2148258550,2147200649,72,5,13,30591
1342305524,5811,1007.1099853515625000,46.1902503967285160,672.1718139648438000,4.2264289855957030,54.2308998107910160,52,98,88,78,81,15339,2147759250,2147421595,2148005988,2147873682,2147643355,2147065563,2148254692,2147203876,71,5,13,17539
1342309124,5808,997.4799804687500000,46.2277603149414060,672.8505249023438000,4.2039890289306640,54.2357101440429700,52,98,90,80,83,15337,2147763382,2147425188,2148007579,2147875245,2147644699,2147056978,2148258880,2147201398,202,5,13,13047
1342312724,5806,993.0900268554688000,46.3977394104003900,673.6342163085938000,4.1780738830566410,54.2231788635253900,53,100,84,80,82,15338,2147761819,2147424009,2148004068,2147873865,2147646409,2147058112,2148260361,2147198244,14,5,13,19998
1342316324,5808,997.4099731445312000,47.4995384216308600,674.6696166992188000,4.1438198089599610,54.0776596069335940,52,100,88,79,82,15333,2147762267,2147422226,2148004086,2147876580,2147644480,2147059154,2148258029,2147202971,3423,4,13,947
1342319924,5806,993.8599853515625000,48.0959091186523440,675.4326782226562000,4.1185669898986820,54.0020103454589840,53,97,88,79,82,15337,2147763730,2147424594,2148005037,2147873819,2147647076,2147060946,2148263094,2147203913,3324,4,13,22496
1342323524,5809,1007.7999877929688000,47.3697891235351560,673.4774169921875000,4.1832561492919920,54.0836791992187500,52,98,86,79,82,15337,2147764041,2147421586,2148007305,2147876736,2147642505,2147056219,2148255488,2147202624,3017,5,13,23725
1342327124,5810,1002.7999877929688000,46.4257507324218750,673.2006835937500000,4.1924099922180180,54.2111892700195300,54,96,89,80,82,15335,2147763090,2147425033,2148006500,2147874752,2147647515,2147062637,2148261586,2147200667,3531,5,13,32505
1342330724,5812,1003.8599853515625000,47.1243400573730500,674.4296875000000000,4.1517558097839355,54.1249618530273440,53,99,87,78,82,15335,2147763520,2147423286,2148009161,2147874843,2147642605,2147055899,2148255040,2147197531,57,4,13,6055
1342334324,5813,1005.6099853515625000,47.2189102172851560,673.5228271484375000,4.1817569732666020,54.1018791198730500,52,99,90,78,82,15336,2147762221,2147419721,2148007881,2147875977,2147647314,2147060644,2148258761,2147202340,47,5,13,57249
1342337924,5807,1004.7299804687500000,46.6110916137695300,673.1610107421875000,4.1937217712402340,54.1874885559082000,53,98,87,78,81,15319,2147760000,2147419940,2148009408,2147876105,2147644096,2147061339,2148258459,2147200932,103,5,13,53679
1342341524,5809,1004.0999755859375000,46.8145103454589840,672.9083251953125000,4.2020778656005860,54.1541290283203100,53,98,88,79,81,15315,2147757769,2147419465,2148005860,2147873782,2147644900,2147063634,2148258121,2147200091,3556,4,13,52300
1342345124,5808,1002.4400024414062000,46.2254600524902340,673.1931762695312000,4.1926569938659670,54.2384490966796900,53,98,88,80,82,15312,2147760219,2147420489,2148009060,2147873993,2147644534,2147059062,2148263104,2147200283,3487,4,13,65335
1342348724,5810,1009.6900024414062000,47.0331192016601560,673.1691894531250000,4.1934490203857420,54.1248016357421900,53,99,86,79,82,15313,2147758656,2147424704,2148007689,2147872822,2147644507,2147058404,2148259474,2147203035,3268,4,13,64588
1342352324,5808,995.7500000000000000,46.9184188842773440,673.7738037109375000,4.1734538078308105,54.1456718444824200,52,101,84,79,82,15315,2147759881,2147421604,2148004269,2147872804,2147645723,2147064246,2148257554,2147199936,165,5,13,276
1342355924,5807,1000.6599731445312000,46.8056182861328100,674.5014038085938000,4.1493840217590330,54.1701507568359400,52,97,87,78,81,15300,2147757613,2147422811,2148008749,2147874843,2147644260,2147063762,2148259053,2147198820,143,5,13,26722
1342359524,5807,986.0700073242188000,47.0446510314941400,675.2130737304688000,4.1258349418640140,54.1470413208007800,53,98,91,79,83,15299,2147759460,2147423808,2148007168,2147874194,2147646957,2147059977,2148262454,2147199798,2865,4,13,20518
1342363124,5813,1002.2700195312500000,47.4870605468750000,674.3900756835938000,4.1530671119689940,54.0786705017089840,53,98,87,80,81,15301,2147762240,2147421933,2148007396,2147874697,2147643766,2147061897,2148265508,2147200694,335,5,13,45104
1342366724,5811,996.9099731445312000,47.2147293090820300,675.3248291015625000,4.1221389770507810,54.1263809204101560,52,99,90,78,82,15300,2147760292,2147421485,2148008740,2147874898,2147642249,2147063122,2148260306,2147198994,35,4,13,1156
1342370324,5806,1002.8099975585938000,47.0208396911621100,674.8319702148438000,4.1384449005126950,54.1455497741699200,53,101,90,79,82,15299,2147759798,2147421668,2148004370,2147874678,2147644763,2147059794,2148259410,2147202203,3549,4,13,707
1342373924,5812,1004.0900268554688000,46.0408897399902340,674.3253784179688000,4.1552047729492190,54.2798690795898440,53,103,88,80,82,15298,2147761929,2147419940,2148009024,2147873984,2147639533,2147063195,2148255405,2147201600,441,4,13,15720
1342377524,5811,1002.4400024414062000,46.4875907897949200,674.4492797851562000,4.1511077880859375,54.2190284729003900,53,99,90,79,82,15293,2147760521,2147420708,2148006235,2147871881,2147644571,2147066422,2148262226,2147200566,447,5,13,48872
1342381124,5809,1003.7899780273438000,47.2046394348144500,674.8950805664062000,4.1363577842712400,54.1225395202636700,52,100,88,80,83,15292,2147761490,2147423232,2148005083,2147877604,2147644096,2147058660,2148262381,2147201682,184,5,13,26026
1342381855,5805,1007.9000244140625000,47.3516311645507800,674.5239868164062000,4.1486339569091800,54.0991897583007800,53,101,86,78,82,15351,2147763035,2147424859,2148009124,2147876397,2147641216,2147062153,2148261586,2147201115,530,5,13,56030
